Weather History for KHOT - July, 2013

Change the Weather History Date:

Wednesday, July 24, 2013

  Actual Average Record
Temperature  
Mean Temperature 78 °F -  
Max Temperature 90 °F 94 °F 103 °F (1952)
Min Temperature 69 °F 70 °F 60 °F (2000)
Cooling Degree Days 14    
Growing Degree Days 28 (Base 50)    
Moisture  
Dew Point 69 °F    
Average Humidity 81    
Maximum Humidity 100    
Minimum Humidity 49    
Precipitation  
Precipitation 0.65 in - - ()
Sea Level Pressure  
Sea Level Pressure 29.94 in    
Wind  
Wind Speed 3 mph (NW)    
Max Wind Speed 10 mph    
Max Gust Speed 17 mph    
Visibility 8 miles    
Events Rain , Thunderstorm    
Averages and records for this station are not official NWS values.
T = Trace of Precipitation, MM = Missing Value Source: NWS Daily Summary

Daily Weather History Graph

Daily Weather History Graph

Search for Another Location

Airport or City:

Trip Planner

Search our weather history database for the weather conditions in past years. The results will help you decide how hot, cold, wet, or windy it might be!

Date:

Astronomy

Jul. 24, 2013 Rise Set
Actual Time 6:17 AM CDT 8:20 PM CDT
Civil Twilight 5:49 AM CDT 8:48 PM CDT
Nautical Twilight 5:14 AM CDT 9:22 PM CDT
Astronomical Twilight 4:38 AM CDT 9:58 PM CDT
Moon 9:36 PM CDT (7/24) 8:29 AM CDT (7/24)
Length of Visible Light 14h 59m
Length of Day
14h 02m
Waning Gibbous, 94% of the Moon is Illuminated
Jul 24
Waning Gibbous
Jul 29
Last Quarter
Aug 6
New
Aug 14
First Quarter
Aug 20
Full

Hourly Weather History & Observations

Time (CDT) Temp. Heat Index Dew Point Humidity Pressure Visibility Wind Dir Wind Speed Gust Speed Precip Events Conditions
12:46 AM 73.4 °F - 71.6 °F 94% 29.96 in 4.0 mi Calm Calm - 0.09 in Rain , Thunderstorm Rain
12:53 AM 72.0 °F - 71.1 °F 97% 29.94 in 4.0 mi Calm Calm - 0.10 in Rain , Thunderstorm Light Rain
1:28 AM 71.6 °F - 69.8 °F 94% 29.94 in 6.0 mi West 5.8 mph - 0.05 in Rain Rain
1:53 AM 71.1 °F - 69.1 °F 93% 29.92 in 7.0 mi WNW 6.9 mph - 0.08 in Rain Rain
2:05 AM 71.6 °F - 69.8 °F 94% 29.96 in 4.0 mi West 6.9 mph - 0.02 in Rain , Thunderstorm Rain
2:53 AM 71.1 °F - 69.1 °F 93% 29.99 in 4.0 mi WNW 5.8 mph - 0.12 in Rain , Thunderstorm Heavy Thunderstorms and Rain
3:02 AM 69.8 °F - 69.8 °F 100% 30.01 in 3.0 mi WNW 5.8 mph - 0.02 in Rain Heavy Rain
3:42 AM 69.8 °F - 69.8 °F 100% 29.97 in 4.0 mi NNW 4.6 mph - 0.13 in Rain , Thunderstorm Rain
3:53 AM 71.1 °F - 69.1 °F 93% 29.96 in 5.0 mi Calm Calm - 0.16 in Rain Rain
4:53 AM 70.0 °F - 69.1 °F 97% 29.93 in 8.0 mi WNW 6.9 mph 17.3 mph 0.12 in Rain Rain
5:22 AM 71.6 °F - 69.8 °F 94% 29.93 in 8.0 mi WNW 6.9 mph - 0.04 in Rain , Thunderstorm Light Thunderstorms and Rain
5:37 AM 71.6 °F - 69.8 °F 94% 29.93 in 10.0 mi WNW 6.9 mph - 0.06 in Rain Light Rain
5:53 AM 71.1 °F - 69.1 °F 93% 29.91 in 9.0 mi WNW 6.9 mph - 0.07 in Rain Light Rain
6:53 AM 71.1 °F - 69.1 °F 93% 29.84 in 10.0 mi SW 3.5 mph - 0.00 in   Clear
7:53 AM 71.1 °F - 69.1 °F 93% 29.88 in 10.0 mi Calm Calm - N/A   Clear
8:33 AM 71.6 °F - 69.8 °F 94% 29.94 in 10.0 mi Calm Calm - N/A   Partly Cloudy
8:53 AM 72.0 °F - 68.0 °F 87% 29.93 in 10.0 mi Calm Calm - N/A   Partly Cloudy
9:53 AM 73.9 °F - 69.1 °F 85% 29.93 in 10.0 mi ENE 10.4 mph - N/A   Scattered Clouds
10:53 AM 77.0 °F - 68.0 °F 74% 29.96 in 10.0 mi NE 6.9 mph - N/A   Scattered Clouds
11:53 AM 81.0 °F 83.8 °F 68.0 °F 65% 29.96 in 10.0 mi Variable 3.5 mph - N/A   Partly Cloudy
12:53 PM 82.9 °F 85.4 °F 66.9 °F 58% 29.96 in 10.0 mi Variable 3.5 mph - N/A   Mostly Cloudy
1:53 PM 82.0 °F 84.5 °F 66.9 °F 60% 29.96 in 10.0 mi East 4.6 mph - N/A   Mostly Cloudy
2:53 PM 84.9 °F 87.6 °F 66.9 °F 55% 29.95 in 10.0 mi East 5.8 mph - N/A   Mostly Cloudy
3:53 PM 86.0 °F 88.2 °F 66.0 °F 51% 29.93 in 10.0 mi NNE 5.8 mph - N/A   Partly Cloudy
4:53 PM 86.0 °F 88.8 °F 66.9 °F 53% 29.92 in 10.0 mi North 4.6 mph - N/A   Partly Cloudy
5:53 PM 88.0 °F 90.7 °F 66.9 °F 49% 29.92 in 10.0 mi Calm Calm - N/A   Mostly Cloudy
6:53 PM 86.0 °F 89.4 °F 68.0 °F 55% 29.92 in 10.0 mi Calm Calm - N/A   Scattered Clouds
7:53 PM 86.0 °F 90.1 °F 69.1 °F 57% 29.92 in 10.0 mi Calm Calm - N/A   Clear
8:53 PM 80.1 °F 83.8 °F 72.0 °F 76% 29.94 in 10.0 mi Calm Calm - N/A   Clear
9:53 PM 78.1 °F - 72.0 °F 81% 29.96 in 10.0 mi Calm Calm - N/A   Clear
10:53 PM 77.0 °F - 71.1 °F 82% 29.97 in 10.0 mi Calm Calm - N/A   Clear
11:53 PM 75.9 °F - 72.0 °F 87% 29.99 in 10.0 mi Calm Calm - N/A   Clear